Content
SEND FEEDBACK

Daily
Averages
Monthly
Summary
Canada

QUEBEC CITY, QUEBEC


Home > North America > Canada > Quebec
Elevation: 239 feet     Latitude: 46 48N     Longitude: 071 23W

WEATHER
 
SELECT A DAY
Number of Records: 192,552;   Date Range: 6/30/96 - 8/27/14
 
SHARE

PRINT THIS DATA

[ ← Previous Day ]
WEATHER ALMANAC - MARCH 22, 2013
[ Next Day → ]
[ °C ]   °F
Weather ElementAverageHighLow
Temperature25.1 °F30.2 °F (2:00 pm)17.6 °F (12:50 am)
Dewpoint16 °F27 °F (5:00 pm) (7:00 pm)
Humidity86.6 %100 % (6:00 am)64 % (2:00 pm)
Wind Speed8 mph19.6 mph (6:26 pm)
Wind Gust23 mph (6:49 pm)
Weather ElementAverage
Visibility8.3 mi
Wind DirectionWSW (249 °)

Weather ElementTotal
Precipitation---
Heating Degree Days41.1 (Base 65)
Averaged from 43 records on March 22, 2013
WEATHER CONDITIONS BREAKOUT
WIND DIRECTION BREAKOUT
WEATHER BY HOUR - MARCH 22, 2013
[ °C ]   °F
Local TimeTemperatureDewpointHumidityBarometerVisibilityWind DirectionWind SpeedGust SpeedPrecipitationEventsConditions
12:50 AM17.6 °F0.0 °F0.0 miCalm (2013°)0.00 inLight Freezing Fog0
1:00 AM21.2 °F19.4 °F93 %29.66 in1.0 miCalmScattered Clouds
1:26 AM19.4 °F0.0 °F0.0 miCalm (2013°)Mostly Cloudy0
2:00 AM19.0 °F18.0 °F92 %29.66 inWest (260°)1.2 mph
2:00 AM23.0 °F21.2 °F93 %29.66 in1.0 miCalmMist
2:35 AM23.0 °F0.0 °F2.0 miNorth (10°)2.3 mphSnowLight Snow
3:00 AM23.0 °F21.2 °F93 %29.66 in2.0 miCalmSnowLight Snow
4:00 AM23.0 °F21.2 °F93 %29.65 in2.0 miESE (110°)2.3 mphSnowLight Snow
5:00 AM23.0 °F22.0 °F97 %29.65 inSSW (200°)1.2 mph
5:00 AM23.0 °F21.2 °F93 %29.65 in2.0 miCalmSnowLight Snow
5:49 AM19.4 °F0.0 °F5.0 miCalmSnowLight Snow
6:00 AM19.4 °F19.4 °F100 %29.66 in5.0 miSSE (150°)2.3 mphSnowLight Snow
6:08 AM19.4 °F0.0 °F5.0 miCalmSnowLight Snow
6:26 AM19.4 °F0.0 °F4.0 miENE (70°)3.5 mphMostly Cloudy
7:00 AM19.4 °F17.6 °F93 %29.68 in3.0 miESE (120°)2.3 mphSnowLight Snow
7:40 AM21.2 °F0.0 °F2.0 miENE (70°)3.5 mphSnowLight Snow
8:00 AM21.2 °F19.4 °F93 %29.68 in2.5 miENE (70°)2.3 mphSnowLight Snow
8:00 AM22.0 °F21.0 °F96 %29.68 inEast (90°)1.2 mph
9:00 AM23.0 °F21.2 °F93 %29.67 in2.0 miNE (50°)3.5 mphSnowLight Snow
10:00 AM24.8 °F21.2 °F86 %29.66 in4.0 miCalmScattered Clouds
11:00 AM24.8 °F21.2 °F86 %29.65 in15.0 miWSW (240°)6.9 mphScattered Clouds
11:00 AM26.0 °F22.0 °F78 %29.63 inWSW (250°)6.9 mph
12:00 PM28.4 °F21.2 °F74 %29.64 in30.0 miSW (220°)10.4 mphScattered Clouds
1:00 PM28.4 °F21.2 °F74 %29.64 in20.0 miSW (230°)10.4 mphMostly Cloudy
2:00 PM30.0 °F23.0 °F64 %29.61 inSW (220°)9.2 mph
2:00 PM30.2 °F21.2 °F69 %29.62 in20.0 miSW (220°)13.8 mphMostly Cloudy
3:00 PM30.2 °F21.2 °F69 %29.61 in20.0 miSW (220°)17.3 mphMostly Cloudy
4:00 PM30.2 °F23.0 °F75 %29.62 in10.0 miSW (230°)13.8 mphSnowLight Snow Showers
4:21 PM28.4 °F0.0 °F1.0 miWSW (250°)11.5 mph17.3 mphSnowLight Snow Showers
5:00 PM29.0 °F27.0 °F91 %29.60 inWSW (250°)9.2 mph
5:00 PM28.4 °F26.6 °F93 %29.61 in2.5 miWSW (240°)11.5 mphSnowLight Snow Showers
5:16 PM30.2 °F0.0 °F5.0 miSW (230°)12.7 mphSnowLight Snow Showers
5:32 PM30.2 °F0.0 °F8.0 miWSW (240°)12.7 mphMostly Cloudy
6:00 PM30.2 °F26.6 °F86 %29.60 in15.0 miWSW (240°)18.4 mphPartly Cloudy
6:26 PM30.2 °F0.0 °F10.0 miWSW (240°)19.6 mphSnowLight Snow Showers
6:49 PM28.4 °F0.0 °F20.0 miWSW (240°)16.1 mph23.0 mphPartly Cloudy
7:00 PM28.4 °F24.8 °F86 %29.61 in15.0 miWSW (240°)15.0 mphPartly Cloudy
8:00 PM28.4 °F24.8 °F86 %29.62 in12.0 miWSW (250°)17.3 mphMostly Cloudy
8:00 PM28.0 °F25.0 °F85 %29.61 inWSW (250°)13.8 mph
9:00 PM28.4 °F24.8 °F86 %29.63 in15.0 miWSW (250°)16.1 mphMostly Cloudy
10:00 PM26.6 °F23.0 °F86 %29.62 in15.0 miWest (260°)15.0 mph20.7 mphScattered Clouds
11:00 PM26.0 °F24.0 °F88 %29.59 inWSW (240°)10.4 mph
11:00 PM24.8 °F23.0 °F93 %29.59 in15.0 miSW (230°)16.1 mphScattered Clouds
Hourly data recorded from CYQB, located miles away from Quebec City, Quebec







STORIES FROM OUR PARTNERS